STARLINK-1753 (46571 NORAD) Tracking and Keplerian Element Data

This shows tracking and keplerian element data for the satellite.

Feedback or suggestion? Click here.




ElementValue
Catalog46571
NameSTARLINK-1753
Epoch Orbit902
Epoch Day332.91668981
Epoch Year2020
RAAN184.7833
Inclination53.0012
Eccentricity0.0001994
Argument of Perigee28.8336
Mean Anonmoly191.5328
Mean Motion15.62704609
Decay Rate0.00078274
L11 46571U 20070AR 20332.91668981 .00078274 00000-0 85402-3 0 9990
L22 46571 53.0012 184.7833 0001994 28.8336 191.5328 15.62704609 9023

Live tracking and technical data element details for STARLINK-1753 (NORAD 46571). STARLINK-1753 can be tracked NOW for your location showing map with azimuth and elevation plus other details from your city location.

Track the satellite on the map from your city or location and see movement details for azimuth, elevation, latitude, longitude, range, height, and movement on the map or in text.







IsCatalogInMostPopularTable: catalog: 46571, numindb: 13
Update: records affected: 1



GetName: 46571 STARLINK-1753

Hit Count: updated at: Sun, 29 Nov 2020 10:17:59 GMT